Portada
METAR-TAF:

METAR-TAF

Aeroports :

Lawrence J. Timmerman Airport

Milwaukee, Wisconsin, Estats Units d'Amèrica

latitud: 43-07N, longitud: 088-02W, altitud: 227 m

Observació

L'informe es va fer fa 40 minuts, a les 13:45 UTC
Vent 4 kt del Oest
Temperatura -6°C
Humitat 79%
Pressió 1017 hPa
Visibilitat: 16.1 km
Cel clar

METAR: KMWC 111345Z 28004KT 10SM SKC M06/M09 A3003

Hora: 08:25 (14:25 UTC)


TAF: manca

Observacions i pronòstics meteorològics de més de 4000 aeroports (METAR i TAF).

Les estacions disponibles són els punts grocs i vermells al mapa.

Posi el ratolí al punt desitjat per veure el nom de l'estació.

Feu clic per veure les observacions i els pronòstics meteorològics.

Per canviar el mapa: feu clic els botons verds amb una creu de color negre per apropar; al botó verd amb un guió per allunyar la imatge; o en les fletxes verdes per a mapes adjacents.


METAR-TAF: